KD2RHT-13 Weather Reports


Display with metric or nautical units.
time (UTC)temp
F
wind
direction
speed
MPH
gust
MPH
rain 1hr
in
rain 24hr
in
rain mn
in
humidity
%
barometer
mb
20260503004739 41 166 1.0 1.0 0.00 0.00 0.00 82 1015.9
20260503004237 41 169 3.0 3.0 0.00 0.00 0.00 81 1015.9
20260503003735 41 186 1.0 1.0 0.00 0.00 0.00 81 1016.2
20260503003231 41 229 1.0 2.0 0.00 0.00 0.00 80 1015.9
20260503002728 42 228 1.0 1.0 0.00 0.00 0.00 80 1015.9
20260503002225 42 266 3.0 3.0 0.00 0.00 0.00 79 1015.9
20260503001721 42 271 1.0 2.0 0.00 0.00 0.00 79 1015.9
20260503001217 42 194 1.0 1.0 0.00 0.00 0.00 79 1015.9
20260503000715 42 181 1.0 1.0 0.00 0.00 0.00 78 1015.9
20260503000212 42 187 1.0 1.0 0.00 0.00 0.00 78 1015.9
20260502235709 42 292 3.0 5.0 0.00 0.00 0.00 77 1015.9
20260502235208 42 223 2.0 2.0 0.00 0.00 0.00 76 1015.9
20260502234703 43 221 1.0 2.0 0.00 0.00 0.00 75 1015.6
20260502234200 43 327 2.0 3.0 0.00 0.00 0.00 74 1015.6
20260502233656 43 202 2.0 2.0 0.00 0.00 0.00 73 1015.6
20260502233153 43 197 2.0 2.0 0.00 0.00 0.00 73 1015.6
20260502232649 44 199 3.0 5.0 0.00 0.00 0.00 72 1015.9
20260502232147 44 349 2.0 3.0 0.00 0.00 0.00 71 1015.6
20260502231643 44 207 3.0 3.0 0.00 0.00 0.00 71 1015.9
20260502231141 44 149 2.0 2.0 0.00 0.00 0.00 72 1015.6
20260502230640 44 176 2.0 3.0 0.00 0.00 0.00 73 1015.6
20260502230137 44 334 5.0 8.0 0.00 0.00 0.00 71 1015.6
20260502225633 45 207 1.0 2.0 0.00 0.00 0.00 69 1015.6
20260502225131 46 324 5.0 6.0 0.00 0.00 0.00 68 1015.2
20260502224626 46 234 2.0 5.0 0.00 0.00 0.00 68 1015.6
20260502224123 46 242 2.0 2.0 0.00 0.00 0.00 67 1015.2
20260502223621 46 277 2.0 3.0 0.00 0.00 0.00 68 1015.6
20260502223119 47 242 5.0 6.0 0.00 0.00 0.00 66 1015.6
20260502222616 46 164 2.0 2.0 0.00 0.00 0.00 66 1015.2
20260502222112 47 221 2.0 3.0 0.00 0.00 0.00 67 1015.2
20260502221608 47 290 2.0 2.0 0.00 0.00 0.00 65 1015.2
20260502221106 47 158 0.0 1.0 0.00 0.00 0.00 65 1015.6
20260502220601 48 197 2.0 3.0 0.00 0.00 0.00 65 1015.2
20260502220058 47 277 5.0 6.0 0.00 0.00 0.00 65 1014.9
20260502215555 47 218 4.0 7.0 0.00 0.00 0.00 64 1015.2
20260502215052 47 207 5.0 7.0 0.00 0.00 0.00 64 1015.2
20260502214549 47 229 4.0 5.0 0.00 0.00 0.00 65 1015.2
20260502214047 47 278 3.0 3.0 0.00 0.00 0.00 65 1015.2
20260502213543 47 262 2.0 2.0 0.00 0.00 0.00 64 1014.9
20260502213041 48 155 4.0 6.0 0.00 0.00 0.00 62 1014.9
20260502212540 49 294 2.0 5.0 0.00 0.00 0.00 64 1014.9
20260502212037 49 300 2.0 5.0 0.00 0.00 0.00 63 1014.9
20260502211532 49 209 3.0 3.0 0.00 0.00 0.00 62 1014.9
20260502211030 48 213 3.0 3.0 0.00 0.00 0.00 63 1014.9
20260502210527 48 177 2.0 3.0 0.00 0.00 0.00 63 1014.9
20260502210024 48 204 3.0 5.0 0.00 0.00 0.00 63 1015.2
20260502205520 48 195 1.0 1.0 0.00 0.00 0.00 61 1015.2
20260502205018 48 354 6.0 9.0 0.00 0.00 0.00 62 1015.2
20260502204514 47 203 4.0 5.0 0.00 0.00 0.00 62 1015.2
20260502204012 48 329 6.0 11.0 0.00 0.00 0.00 60 1014.9
20260502203509 49 288 4.0 5.0 0.00 0.00 0.00 61 1014.9
20260502203006 49 218 1.0 1.0 0.00 0.00 0.00 63 1014.9
20260502202502 49 271 3.0 3.0 0.00 0.00 0.00 60 1014.9
20260502202000 49 212 1.0 3.0 0.00 0.00 0.00 60 1015.2
20260502201456 49 229 3.0 3.0 0.00 0.00 0.00 58 1014.9
20260502200953 48 203 2.0 3.0 0.00 0.00 0.00 59 1014.9
20260502200448 48 257 1.0 2.0 0.00 0.00 0.00 59 1015.2
20260502195946 49 205 0.0 1.0 0.00 0.00 0.00 58 1015.6
20260502195444 48 151 1.0 2.0 0.00 0.00 0.00 61 1015.2
20260502194940 48 184 1.0 1.0 0.00 0.00 0.00 60 1015.2
20260502194437 48 214 2.0 2.0 0.00 0.00 0.00 60 1015.6
20260502193932 48 181 4.0 5.0 0.00 0.00 0.00 62 1015.6
20260502193430 47 282 3.0 3.0 0.00 0.00 0.00 63 1015.6
20260502192925 47 195 3.0 3.0 0.00 0.00 0.00 65 1015.6
20260502192417 47 90 1.0 1.0 0.00 0.00 0.00 65 1015.6
20260502191914 47 291 3.0 5.0 0.00 0.00 0.00 64 1015.6
20260502191412 47 181 2.0 2.0 0.00 0.00 0.00 65 1015.9
20260502190909 47 190 1.0 2.0 0.00 0.00 0.00 66 1015.6
20260502190406 46 316 2.0 3.0 0.00 0.00 0.00 67 1015.9
20260502185903 46 171 1.0 2.0 0.00 0.00 0.00 66 1015.9
20260502185358 46 228 2.0 3.0 0.00 0.00 0.00 66 1015.9
20260502184855 46 263 2.0 5.0 0.00 0.00 0.00 66 1015.9
20260502184350 47 256 3.0 5.0 0.00 0.00 0.00 64 1015.9
20260502183848 46 51 5.0 7.0 0.00 0.00 0.00 65 1015.9
20260502183344 46 84 4.0 6.0 0.00 0.00 0.00 64 1015.9
20260502182838 46 325 2.0 3.0 0.00 0.00 0.00 66 1015.9
20260502182334 46 170 1.0 1.0 0.00 0.00 0.00 67 1015.9
20260502181831 46 294 3.0 5.0 0.00 0.00 0.00 67 1015.6
20260502181330 46 282 1.0 2.0 0.00 0.00 0.00 67 1015.6
20260502180827 47 219 3.0 5.0 0.00 0.00 0.00 66 1015.6
20260502180324 46 205 3.0 3.0 0.00 0.00 0.00 65 1015.6
20260502170243 47 261 2.0 2.0 0.00 0.00 0.00 66 1015.2
20260502164231 47 318 3.0 5.0 0.00 0.00 0.00 67 1015.6
20260502163726 47 298 3.0 5.0 0.00 0.00 0.00 64 1015.2
20260502163223 48 153 0.0 1.0 0.00 0.00 0.00 65 1015.6
20260502162720 50 350 3.0 3.0 0.00 0.00 0.00 65 1015.6
20260502162216 50 351 3.0 5.0 0.00 0.00 0.00 65 1015.2
20260502161714 47 239 3.0 5.0 0.00 0.00 0.00 63 1015.2
20260502161210 48 239 2.0 3.0 0.00 0.00 0.00 66 1015.2
20260502160708 48 226 4.0 6.0 0.00 0.00 0.00 62 1015.6
20260502160207 49 299 4.0 6.0 0.00 0.00 0.00 65 1015.2
20260502152121 49 275 4.0 5.0 0.00 0.00 0.00 64 1015.9
20260502151618 50 341 3.0 3.0 0.00 0.00 0.00 66 1015.9
20260502151115 49 326 3.0 5.0 0.00 0.00 0.00 68 1015.9
20260502150613 48 172 2.0 3.0 0.00 0.00 0.00 68 1015.9
20260502150109 48 296 5.0 6.0 0.00 0.00 0.00 68 1015.9
20260502130458 42 155 0.0 1.0 0.00 0.00 0.00 86 1016.9
20260502123440 41 197 2.0 2.0 0.00 0.00 0.00 90 1016.6
20260502122938 41 138 1.0 1.0 0.00 0.00 0.00 90 1016.6
20260502122433 41 174 1.0 1.0 0.00 0.00 0.00 89 1016.6
20260502121932 41 180 2.0 2.0 0.00 0.00 0.00 90 1016.6
20260502121429 40 187 1.0 2.0 0.00 0.00 0.00 90 1016.6
20260502120926 40 178 2.0 2.0 0.00 0.00 0.00 90 1016.6
20260502120422 40 164 2.0 2.0 0.00 0.00 0.00 90 1016.6
20260502115920 40 263 0.0 1.0 0.00 0.00 0.00 91 1016.6
20260502115417 40 211 2.0 2.0 0.00 0.00 0.00 91 1016.6
20260502114912 40 269 3.0 3.0 0.00 0.00 0.00 92 1016.6
20260502114410 40 226 2.0 2.0 0.00 0.00 0.00 92 1016.2
20260502113907 40 264 3.0 6.0 0.00 0.00 0.00 93 1016.6
20260502113405 39 151 2.0 3.0 0.00 0.00 0.00 94 1016.2
20260502112903 39 259 3.0 5.0 0.00 0.00 0.00 93 1016.6
20260502112400 39 200 3.0 3.0 0.00 0.00 0.00 93 1015.9
20260502111857 39 192 5.0 9.0 0.00 0.00 0.00 94 1016.2
20260502111354 39 190 2.0 2.0 0.00 0.00 0.00 95 1016.2
20260502110852 39 170 0.0 0.0 0.00 0.00 0.00 95 1015.9
20260502110350 39 230 2.0 3.0 0.00 0.00 0.00 95 1016.2
20260502105847 39 306 0.0 0.0 0.00 0.00 0.00 96 1015.9
20260502105344 38 320 3.0 5.0 0.00 0.00 0.00 96 1015.9
20260502104842 38 195 2.0 2.0 0.00 0.00 0.00 98 1015.9
20260502104339 38 283 4.0 8.0 0.00 0.00 0.00 99 1015.6
20260502103835 38 165 0.0 1.0 0.00 0.00 0.00 99 1015.9
20260502103333 38 198 1.0 1.0 0.00 0.00 0.00 99 1015.2
20260502102830 38 334 1.0 2.0 0.00 0.00 0.00 99 1015.6
20260502102326 38 197 5.0 11.0 0.00 0.00 0.00 99 1015.6
20260502101824 39 182 0.0 1.0 0.00 0.00 0.00 99 1015.6
20260502101322 39 306 2.0 3.0 0.00 0.00 0.00 99 1015.6
20260502100820 39 227 2.0 2.0 0.00 0.00 0.00 99 1015.6
20260502100319 39 187 0.0 1.0 0.00 0.00 0.00 99 1015.2
20260502091253 39 249 1.0 2.0 0.00 0.00 0.00 99 1014.9
20260502090750 39 156 0.0 0.0 0.00 0.00 0.00 99 1014.9
20260502090247 39 162 0.0 0.0 0.00 0.00 0.00 99 1014.9
20260502071147 39 159 0.0 0.0 0.00 0.00 0.00 99 1014.5
20260502070645 39 155 0.0 0.0 0.00 0.00 0.00 99 1014.5
20260502070143 39 164 0.0 0.0 0.00 0.00 0.00 99 1014.5
20260502065641 39 171 0.0 0.0 0.00 0.00 0.00 99 1014.5
20260502065138 39 178 0.0 0.0 0.00 0.00 0.00 99 1014.5
20260502064637 39 155 0.0 0.0 0.00 0.00 0.00 99 1014.2
20260502064134 39 159 0.0 0.0 0.00 0.00 0.00 99 1014.5
20260502063631 39 158 0.0 0.0 0.00 0.00 0.00 99 1014.2
20260502063129 39 157 0.0 0.0 0.00 0.00 0.00 99 1014.2
20260502062626 39 159 0.0 0.0 0.00 0.00 0.00 99 1014.2
20260502062123 40 162 0.0 0.0 0.00 0.00 0.00 99 1014.5
20260502061622 40 156 0.0 0.0 0.00 0.00 0.00 99 1014.5
20260502061119 40 131 0.0 0.0 0.00 0.00 0.00 99 1014.2
20260502060619 40 160 0.0 0.0 0.00 0.00 0.00 99 1014.2
20260502060116 40 151 0.0 0.0 0.00 0.00 0.00 99 1014.5
20260502055614 40 158 0.0 0.0 0.00 0.00 0.00 99 1014.9
20260502055111 40 167 0.0 0.0 0.00 0.00 0.00 99 1014.9
20260502054610 40 187 1.0 1.0 0.00 0.00 0.00 99 1015.2
20260502054107 40 177 0.0 0.0 0.00 0.00 0.00 99 1014.9
20260502053604 40 157 0.0 0.0 0.00 0.00 0.00 99 1014.9
20260502053101 40 160 0.0 0.0 0.00 0.00 0.00 99 1014.9
20260502052600 40 156 0.0 0.0 0.00 0.00 0.00 99 1014.9
20260502052058 40 160 0.0 0.0 0.00 0.00 0.00 99 1014.9
20260502051555 40 160 0.0 0.0 0.00 0.00 0.00 99 1014.9
20260502051053 40 158 0.0 0.0 0.00 0.00 0.00 99 1014.9
20260502050549 40 152 0.0 0.0 0.00 0.00 0.00 99 1014.9
20260502050046 39 160 0.0 0.0 0.00 0.00 0.00 99 1014.9
20260502045543 39 157 0.0 0.0 0.00 0.00 0.00 99 1014.9
20260502045040 39 157 0.0 0.0 0.00 0.00 0.00 99 1014.9
20260502044536 39 157 0.0 0.0 0.00 0.00 0.00 99 1015.2
20260502044033 39 157 0.0 0.0 0.00 0.00 0.00 99 1015.2
20260502043531 39 157 0.0 0.0 0.00 0.00 0.00 99 1014.9
20260502043027 39 158 0.0 0.0 0.00 0.00 0.00 99 1014.9
20260502042522 39 159 0.0 0.0 0.00 0.00 0.00 99 1014.9
20260502042020 40 160 0.0 0.0 0.00 0.00 0.00 99 1014.9
20260502041517 40 160 0.0 0.0 0.00 0.00 0.00 99 1014.9
20260502041014 40 164 0.0 0.0 0.00 0.00 0.00 99 1014.9
20260502040510 40 164 0.0 0.0 0.00 0.00 0.00 99 1014.9
20260502040008 40 161 0.0 0.0 0.00 0.19 0.19 99 1014.9
20260502035503 40 164 0.0 0.0 0.00 0.19 0.19 99 1014.9
20260502035001 40 150 0.0 0.0 0.00 0.19 0.19 99 1014.5
20260502034459 40 144 0.0 0.0 0.00 0.19 0.19 99 1014.9
20260502033957 40 152 0.0 0.0 0.00 0.19 0.19 99 1014.5
20260502033455 40 154 0.0 0.0 0.07 0.19 0.19 99 1014.5
20260502032951 40 143 0.0 0.0 0.00 0.18 0.18 99 1014.9
20260502032448 40 156 0.0 0.0 0.00 0.18 0.18 99 1014.5
20260502031944 40 159 0.0 0.0 0.00 0.18 0.18 99 1014.9
20260502031443 40 155 0.0 0.0 0.00 0.18 0.18 99 1014.5
20260502030941 40 154 0.0 0.0 0.05 0.18 0.18 99 1014.9
20260502030439 40 152 0.0 0.0 0.00 0.17 0.17 99 1014.5
20260502025931 40 154 0.0 0.0 0.00 0.17 0.17 99 1014.9
20260502025428 40 155 0.0 0.0 0.00 0.17 0.17 99 1014.9
20260502024926 41 154 0.0 0.0 0.00 0.17 0.17 99 1014.5
20260502024424 41 154 0.0 0.0 0.07 0.17 0.17 99 1014.9
20260502023922 41 152 0.0 0.0 0.00 0.16 0.16 99 1014.9
20260502023419 41 158 0.0 0.0 0.00 0.16 0.16 99 1014.9
20260502022917 41 155 0.0 0.0 0.05 0.16 0.16 99 1014.5
20260502022413 41 155 0.0 0.0 0.00 0.15 0.15 99 1014.9
20260502021910 41 154 0.0 0.0 0.07 0.15 0.15 99 1014.9
20260502021407 41 159 0.0 0.0 0.07 0.15 0.15 99 1014.9
20260502020904 41 161 0.0 0.0 0.07 0.14 0.14 99 1014.9
20260502020402 41 146 0.0 0.0 0.07 0.14 0.14 99 1014.9
20260502015858 41 148 0.0 0.0 0.00 0.13 0.13 99 1014.9
20260502015356 41 154 0.0 0.0 0.00 0.13 0.13 99 1014.9
20260502014853 41 153 0.0 0.0 0.00 0.13 0.13 99 1014.9
20260502014350 41 142 0.0 0.0 0.00 0.13 0.13 99 1014.5
20260502013846 41 150 0.0 0.0 0.00 0.13 0.13 99 1014.9
20260502013341 41 152 0.0 0.0 0.05 0.13 0.13 99 1014.5
20260502012838 41 158 0.0 0.0 0.00 0.12 0.12 99 1014.5
20260502012336 41 126 1.0 1.0 0.07 0.12 0.12 99 1014.5
20260502011833 41 160 0.0 0.0 0.07 0.12 0.12 99 1014.5
20260502011329 41 158 0.0 0.0 0.00 0.11 0.11 99 1014.5
20260502010826 41 154 0.0 0.0 0.05 0.11 0.11 99 1014.5
20260502010323 41 147 0.0 0.0 0.07 0.10 0.10 98 1014.5
20260502005819 41 160 0.0 0.0 0.12 0.10 0.10 98 1014.5
20260502005317 42 148 0.0 0.0 0.12 0.09 0.09 98 1014.5